| time (UTC) | temp F | wind direction | speed MPH | gust MPH | rain 1hr in | rain 24hr in | rain mn in | humidity % | barometer mb |
| 20260502210101 | 58 | 273 | 0.0 | 0.0 | 0.00 | 0.07 | 0.07 | 88 | 1009.6 |
| 20260502203059 | 59 | 265 | 0.0 | 4.0 | 0.01 | 0.07 | 0.07 | 88 | 1010.2 |
| 20260502200059 | 59 | 0 | 2.0 | 9.0 | 0.05 | 0.07 | 0.07 | 87 | 1010.1 |
| 20260502193100 | 59 | 0 | 5.0 | 16.0 | 0.06 | 0.06 | 0.06 | 86 | 1010.1 |
| 20260502190059 | 63 | 236 | 11.0 | 22.0 | 0.02 | 0.02 | 0.02 | 76 | 1010.2 |
| 20260502183059 | 69 | 131 | 8.0 | 14.0 | 0.00 | 0.00 | 0.00 | 59 | 1009.4 |
| 20260502170103 | 71 | 107 | 3.0 | 9.0 | 0.00 | 0.00 | 0.00 | 50 | 1009.8 |
| 20260502163056 | 73 | 143 | 3.0 | 7.0 | 0.00 | 0.00 | 0.00 | 48 | 1010.4 |
| 20260502123054 | 67 | 257 | 6.0 | 12.0 | 0.00 | 0.00 | 0.00 | 53 | 1013.6 |
| 20260502113055 | 65 | 242 | 7.0 | 12.0 | 0.00 | 0.00 | 0.00 | 57 | 1014.4 |
| 20260502103055 | 64 | 241 | 5.0 | 12.0 | 0.00 | 0.00 | 0.00 | 63 | 1014.9 |
| 20260502070057 | 57 | 0 | 4.0 | 8.0 | 0.00 | 0.00 | 0.00 | 78 | 1015.7 |
| 20260502063045 | 56 | 255 | 3.0 | 7.0 | 0.00 | 0.00 | 0.00 | 82 | 1015.5 |
| 20260502060056 | 55 | 286 | 2.0 | 6.0 | 0.00 | 0.00 | 0.00 | 84 | 1015.6 |
| 20260502053045 | 53 | 0 | 2.0 | 4.0 | 0.00 | 0.00 | 0.00 | 85 | 1015.4 |
| 20260502050050 | 53 | 249 | 2.0 | 6.0 | 0.00 | 0.00 | 0.00 | 85 | 1015.7 |
| 20260502040048 | 54 | 259 | 1.0 | 4.0 | 0.00 | 0.00 | 0.00 | 84 | 1015.6 |
| 20260502033038 | 55 | 0 | 1.0 | 4.0 | 0.00 | 0.00 | 0.00 | 83 | 1015.6 |
| 20260502030040 | 56 | 286 | 2.0 | 7.0 | 0.00 | 0.00 | 0.00 | 82 | 1015.7 |
| 20260502023044 | 57 | 263 | 2.0 | 8.0 | 0.00 | 0.00 | 0.00 | 80 | 1015.7 |
| 20260502020042 | 57 | 273 | 2.0 | 7.0 | 0.00 | 0.00 | 0.00 | 80 | 1015.9 |
| 20260502013027 | 59 | 297 | 4.0 | 8.0 | 0.00 | 0.00 | 0.00 | 78 | 1016.2 |
| 20260502010030 | 60 | 294 | 4.0 | 9.0 | 0.00 | 0.00 | 0.00 | 77 | 1016.4 |
| 20260502003014 | 61 | 262 | 2.0 | 9.0 | 0.00 | 0.00 | 0.00 | 76 | 1016.6 |
| 20260502000016 | 62 | 245 | 4.0 | 9.0 | 0.00 | 0.00 | 0.00 | 75 | 1016.5 |
| 20260501233016 | 62 | 292 | 3.0 | 9.0 | 0.00 | 0.00 | 0.00 | 75 | 1016.6 |
| 20260501230037 | 63 | 260 | 4.0 | 8.0 | 0.00 | 0.00 | 0.00 | 73 | 1016.8 |
| 20260501223023 | 63 | 246 | 5.0 | 10.0 | 0.00 | 0.00 | 0.00 | 72 | 1016.8 |
| 20260501220023 | 64 | 261 | 5.0 | 10.0 | 0.00 | 0.00 | 0.00 | 72 | 1016.7 |
| 20260501213017 | 65 | 291 | 4.0 | 9.0 | 0.00 | 0.00 | 0.00 | 69 | 1016.7 |